Weather reports worldwide

Advertisment
Williston/Basin International, United States of America (72767): temperature & dewpoint: 01.07.2020 17:00:00 - 07.07.2020 17:00:00 (CDT)Williston/Basin International, United States of America (72767): wind speed & gusts: 01.07.2020 17:00:00 - 07.07.2020 17:00:00 (CDT)Williston/Basin International, United States of America (72767): wind direction: 01.07.2020 17:00:00 - 07.07.2020 17:00:00 (CDT)Williston/Basin International, United States of America (72767): reduced air pressure: 01.07.2020 17:00:00 - 07.07.2020 17:00:00 (CDT)Williston/Basin International, United States of America (72767): visibility: 01.07.2020 17:00:00 - 07.07.2020 17:00:00 (CDT)Williston/Basin International, United States of America (72767): precipitation: 01.07.2020 17:00:00 - 07.07.2020 17:00:00 (CDT)
Date & Time tt [°C] td [°C] ff [km/h] ff [kn] fx [km/h] fx [kn] dd ppp [hPa] vv [km] rr [mm]
07.07.2020 17:00:00 27,2 16,1 29 16 63 34 SE 992,4 16 -
07.07.2020 16:00:00 28,3 15,0 28 15 61 33 SE 992,5 16 -
07.07.2020 15:00:00 27,8 15,0 26 14 63 34 SE 993,0 16 -
07.07.2020 14:00:00 27,2 14,4 34 18 59 32 SE 993,3 16 -
07.07.2020 13:00:00 26,1 15,0 28 15 54 29 SE 994,9 16 -
07.07.2020 12:00:00 25,6 16,1 22 12 - - SSE 996,3 16 -
07.07.2020 11:00:00 24,4 15,6 21 11 - - SE 997,2 16 -
07.07.2020 10:00:00 22,8 15,6 26 14 - - SSE 997,8 16 -
07.07.2020 09:00:00 21,1 15,6 16 9 - - SSE 997,7 16 -
07.07.2020 08:00:00 17,8 13,9 13 7 - - ESE 998,0 16 -
07.07.2020 07:00:00 16,1 13,3 9 5 - - E 998,6 16 -
07.07.2020 06:00:00 15,6 13,3 11 6 - - SE 998,9 16 -
07.07.2020 05:00:00 16,1 12,8 11 6 - - ESE 998,3 16 -
07.07.2020 04:00:00 15,6 12,8 9 5 - - SSE 998,4 16 -
07.07.2020 03:00:00 16,7 13,3 9 5 - - ENE 998,6 16 -
07.07.2020 02:00:00 17,2 13,3 0 0 - - N 999,1 16 -
07.07.2020 01:00:00 17,2 13,3 5 3 - - S 999,3 16 -
07.07.2020 00:00:00 17,8 12,8 18 10 - - S 999,0 16 -
06.07.2020 23:00:00 18,3 13,3 9 5 - - SSW 999,8 16 -
06.07.2020 22:00:00 19,4 12,8 9 5 - - SSW 999,6 16 -
06.07.2020 21:00:00 20,0 13,3 18 10 - - SW 999,7 16 0,0
06.07.2020 20:00:00 23,3 13,9 8 4 - - SE 999,3 16 0,0
06.07.2020 19:00:00 24,4 13,3 11 6 - - E 999,4 16 -
06.07.2020 18:00:00 25,6 12,2 13 7 - - E 999,5 16 -
06.07.2020 17:00:00 27,2 11,1 13 7 - - ENE 999,8 16 -
06.07.2020 16:00:00 26,7 10,6 5 3 - - ENE 1000,2 16 -
06.07.2020 15:00:00 26,7 11,7 5 3 - - NE 1000,5 16 -
06.07.2020 14:00:00 26,1 11,1 11 6 - - E 1001,0 16 -
06.07.2020 13:00:00 25,0 10,6 9 5 - - NNE 1001,2 16 -
06.07.2020 12:00:00 23,9 10,0 9 5 - - ENE 1001,4 16 -
06.07.2020 11:00:00 23,3 10,0 9 5 - - E 1001,6 16 -
06.07.2020 10:00:00 22,8 11,7 11 6 - - ESE 1001,5 16 -
06.07.2020 09:00:00 21,1 11,1 5 3 - - E 1001,1 16 -
06.07.2020 08:00:00 17,8 12,8 8 4 - - ENE 1001,0 16 -
06.07.2020 07:00:00 16,7 12,2 8 4 - - NE 1000,8 16 -
06.07.2020 06:00:00 16,1 12,8 8 4 - - NE 1000,9 16 -
06.07.2020 05:00:00 16,7 12,8 15 8 - - NNE 1000,2 16 -
06.07.2020 04:00:00 16,7 13,9 13 7 - - NNE 1000,0 16 -
06.07.2020 03:00:00 17,8 13,9 13 7 - - NNE 1000,3 16 -
06.07.2020 02:00:00 17,8 13,9 13 7 - - NNE 1000,8 16 -
06.07.2020 01:00:00 18,3 13,3 11 6 - - NNE 1000,9 16 -
06.07.2020 00:00:00 17,2 13,3 15 8 - - NNW 1000,6 16 -
05.07.2020 23:00:00 18,9 13,3 9 5 - - NNE 1000,0 16 -
05.07.2020 22:00:00 20,6 13,3 15 8 - - NNE 999,4 16 -
05.07.2020 21:00:00 25,0 15,0 9 5 - - NW 998,5 16 -
05.07.2020 20:00:00 26,1 14,4 11 6 - - WNW 998,5 16 -
05.07.2020 19:00:00 26,7 15,0 9 5 - - NW 998,5 16 -
05.07.2020 18:00:00 24,4 15,0 15 8 - - WNW 999,2 16 -
05.07.2020 17:00:00 26,7 15,0 16 9 - - WNW 999,0 16 -
05.07.2020 16:00:00 26,1 15,0 0 0 - - N 999,4 16 -
05.07.2020 15:00:00 24,4 16,1 5 3 - - NNE 999,6 16 -
05.07.2020 14:00:00 23,3 17,2 13 7 - - NNW 1000,1 16 -
05.07.2020 13:00:00 22,2 16,7 18 10 - - NW 1000,0 16 -
05.07.2020 12:00:00 21,7 16,7 18 10 - - NW 999,3 16 -
05.07.2020 11:00:00 21,7 16,7 22 12 - - WNW 999,0 16 -
05.07.2020 10:00:00 20,0 15,6 18 10 - - W 999,4 16 -
05.07.2020 09:00:00 19,4 16,1 16 9 - - WSW 999,0 16 -
05.07.2020 08:00:00 17,2 15,0 16 9 - - WSW 997,6 16 -
05.07.2020 07:00:00 16,1 14,4 9 5 - - SW 997,9 16 -
05.07.2020 06:00:00 15,0 13,9 16 9 - - WSW 998,4 16 -
05.07.2020 05:00:00 15,6 13,9 8 4 - - E 997,4 16 -
05.07.2020 04:00:00 15,6 14,4 16 9 - - NE 998,3 16 -
05.07.2020 03:00:00 16,1 14,4 24 13 - - NE 998,6 16 0,0
05.07.2020 02:00:00 16,1 14,4 24 13 67 36 NNE 999,2 16 10,7
05.07.2020 01:00:00 16,1 15,0 31 17 67 36 NNW 1002,4 10 9,7
05.07.2020 00:00:00 26,1 16,7 24 13 55 30 SE 996,3 10 -
04.07.2020 23:00:00 26,1 16,1 22 12 - - SE 996,9 16 -
04.07.2020 22:00:00 26,1 17,2 13 7 - - ESE 996,8 16 -
04.07.2020 21:00:00 30,0 17,2 9 5 - - ESE 996,4 16 -
04.07.2020 20:00:00 31,7 15,6 9 5 - - ESE 996,3 16 -
04.07.2020 19:00:00 32,8 14,4 9 5 - - SSW 997,0 16 -
04.07.2020 18:00:00 32,2 14,4 11 6 - - SSW 997,9 16 -
04.07.2020 17:00:00 32,2 15,0 16 9 - - SW 998,5 16 -
04.07.2020 16:00:00 31,7 15,0 18 10 - - W 998,9 16 -
04.07.2020 15:00:00 31,1 15,6 21 11 - - WSW 999,1 16 -
04.07.2020 14:00:00 28,9 17,8 15 8 - - SW 999,4 16 -
04.07.2020 13:00:00 27,2 17,2 18 10 - - SW 999,9 16 -
04.07.2020 12:00:00 26,1 16,1 22 12 - - SSW 1000,0 16 -
04.07.2020 11:00:00 25,0 15,6 26 14 - - SSW 999,4 16 -
04.07.2020 10:00:00 23,3 15,6 21 11 - - SSW 999,6 16 -
04.07.2020 09:00:00 21,7 16,1 16 9 - - S 999,6 16 -
04.07.2020 08:00:00 18,9 15,0 8 4 - - SSE 999,2 16 -
04.07.2020 07:00:00 17,8 14,4 8 4 - - SSE 999,5 16 -
04.07.2020 06:00:00 17,2 13,9 13 7 - - SSE 999,9 16 -
04.07.2020 05:00:00 17,2 13,9 13 7 - - E 1000,3 16 -
04.07.2020 04:00:00 16,7 14,4 15 8 - - NNE 999,2 16 -
04.07.2020 03:00:00 18,3 13,3 24 13 55 30 N 999,7 16 -
04.07.2020 02:00:00 18,3 14,4 16 9 - - S 999,4 16 -
04.07.2020 01:00:00 17,8 15,0 18 10 52 28 S 1000,1 16 0,0
04.07.2020 00:00:00 18,9 15,6 5 3 81 44 - 1000,9 16 0,0
03.07.2020 23:00:00 21,7 13,3 34 18 81 44 SW 999,8 16 0,0
03.07.2020 22:00:00 25,6 15,6 16 9 - - ESE 999,7 16 -
03.07.2020 21:00:00 27,2 13,3 22 12 52 28 ESE 998,4 16 -
03.07.2020 20:00:00 29,4 11,7 26 14 55 30 ESE 999,0 16 -
03.07.2020 19:00:00 31,1 10,6 34 18 63 34 ESE 999,6 16 -
03.07.2020 18:00:00 31,7 11,7 37 20 61 33 ESE 999,7 16 -
03.07.2020 17:00:00 31,1 15,0 29 16 54 29 ESE 1000,5 16 -
03.07.2020 16:00:00 29,4 14,4 29 16 54 29 E 1000,4 16 -
03.07.2020 15:00:00 30,0 15,0 22 12 - - E 1000,4 16 -
03.07.2020 14:00:00 26,1 14,4 16 9 - - E 1001,3 16 -
03.07.2020 13:00:00 25,6 13,3 15 8 52 28 SSE 1001,9 16 -
03.07.2020 12:00:00 28,9 12,2 39 21 55 30 SSE 1001,5 16 -
03.07.2020 11:00:00 26,1 14,4 22 12 61 33 S 1001,7 16 -
03.07.2020 10:00:00 23,9 15,0 13 7 - - S 1001,7 16 -
03.07.2020 09:00:00 22,2 14,4 8 4 - - SSE 1001,2 16 -
03.07.2020 08:00:00 20,6 14,4 8 4 - - NW 1000,9 16 -
03.07.2020 07:00:00 17,2 13,9 8 4 - - S 1001,3 16 -
03.07.2020 06:00:00 17,2 13,3 9 5 - - SSE 1000,7 16 -
03.07.2020 05:00:00 17,8 12,8 13 7 - - SE 1000,5 16 -
03.07.2020 04:00:00 18,3 11,1 15 8 - - ESE 1000,6 16 -
03.07.2020 03:00:00 17,8 10,0 8 4 - - ESE 1000,3 16 -
03.07.2020 02:00:00 18,9 10,0 13 7 - - ESE 1000,0 16 -
03.07.2020 01:00:00 19,4 10,0 9 5 - - ENE 999,9 16 -
03.07.2020 00:00:00 20,6 10,0 11 6 - - ENE 999,1 16 -
02.07.2020 23:00:00 21,1 9,4 9 5 - - NE 998,7 16 -
02.07.2020 22:00:00 23,9 8,3 11 6 - - NE 997,7 16 -
02.07.2020 21:00:00 26,7 9,4 8 4 - - NE 997,7 16 -
02.07.2020 20:00:00 28,3 8,9 5 3 - - E 997,3 16 -
02.07.2020 19:00:00 28,3 8,9 0 0 - - N 997,5 16 -
02.07.2020 18:00:00 27,8 8,9 13 7 - - SW 996,9 16 -
02.07.2020 17:00:00 27,8 7,2 9 5 - - W 997,3 16 -
02.07.2020 16:00:00 27,2 10,6 16 9 - - SW 997,2 16 -
02.07.2020 15:00:00 26,7 11,7 21 11 - - WSW 996,8 16 -
02.07.2020 14:00:00 25,6 12,8 16 9 - - SW 996,6 16 -
02.07.2020 13:00:00 22,8 11,7 16 9 - - WSW 996,5 16 -
02.07.2020 12:00:00 22,8 11,1 24 13 - - WSW 995,3 16 -
02.07.2020 11:00:00 23,3 12,8 13 7 - - SW 993,6 16 -
02.07.2020 10:00:00 23,3 10,6 24 13 - - WSW 993,0 16 -
02.07.2020 09:00:00 20,6 11,1 16 9 - - SW 992,8 16 -
02.07.2020 08:00:00 18,9 12,8 21 11 - - S 992,9 16 -
02.07.2020 07:00:00 16,7 12,8 18 10 - - SE 991,9 16 -
02.07.2020 06:00:00 16,1 12,8 15 8 - - ESE 992,1 16 -
02.07.2020 05:00:00 16,1 12,2 13 7 - - E 992,6 16 -
02.07.2020 04:00:00 16,7 12,2 11 6 - - ESE 993,2 16 -
02.07.2020 03:00:00 17,2 12,2 13 7 - - E 994,1 16 -
02.07.2020 02:00:00 17,8 12,2 16 9 - - SE 994,5 16 -
02.07.2020 01:00:00 18,3 12,2 15 8 - - SSE 995,0 16 -
02.07.2020 00:00:00 18,9 12,2 18 10 - - E 994,5 16 -
01.07.2020 23:00:00 18,9 11,7 15 8 - - E 994,7 16 -
01.07.2020 22:00:00 20,6 12,2 13 7 - - E 994,5 16 -
01.07.2020 21:00:00 25,6 11,1 11 6 50 27 ESE 994,2 16 -
01.07.2020 20:00:00 26,1 10,6 15 8 - - SSE 993,7 16 -
01.07.2020 19:00:00 27,2 10,0 15 8 - - SSW 993,7 16 -
01.07.2020 18:00:00 26,7 9,4 22 12 - - SSW 993,9 16 -
01.07.2020 17:00:00 25,0 11,7 18 10 50 27 SSW 993,9 16 -

tt = temperature
td = dewpoint
ff = wind speed
fx = gusts
dd = wind direction
ppp = reduced air pressure
vv = visibility
rr = precipitation

Next stations